Flag for U.S.A. Weather past 2 weeks in Charleston, South Carolina, U.S.A.

Now
92 °F

Thunderstorms. Scattered clouds.


Feels Like: 104 °F
Forecast: 76 / 90 °F
Wind: 12 mph from Southeast

Location: Charleston Air Force Base Reporting Station

Current Time: Sep 1, 2014 at 5:15:51 PM

Latest Report: Sep 1, 2014 at 4:56 PM


Visibility: 10 mi

Pressure: 30.05 "Hg

Humidity: 60%

Dew point: 76 °F

Location of CharlestonLocation

Historic Weather in Charleston — Graph

°F

Charleston temperature yesterday

Maximum temperature yesterday: 92 °F (at 12:56 PM)
Minimum temperature yesterday: 75 °F (at 4:56 AM)
Average temperature yesterday: 83 °F

Past Weeks' High & Low Weather Summary

 TemperatureHumidityPressure
High99 °F (Aug 22, 3:56 PM)94% (Aug 30, 5:56 AM)30.19 "Hg (Aug 30, 5:56 AM)
Low65 °F (Aug 27, 6:56 AM)33% (Aug 28, 3:56 PM)29.83 "Hg (Aug 23, 4:56 PM)
Average83 °F68%30.00 "Hg
* Reported Aug 17 3:56 PM — Sep 1 3:56 PM, Charleston, Weather by CustomWeather, © 2014

Note: Actual official high and low records may vary slightly from our data, if they occured in-between our weather recording intervals... More about our weather records

Advertising

Charleston weather history for previous 24 hours

 ConditionsComfort  
Time TempWeatherWind HumidityBarometerVisibility
3:56 PM
Sep 1
92 °FScattered clouds.12 mph58%30.06 "Hg10 mi
2:56 PM92 °FScattered clouds.9 mph60%30.08 "Hg10 mi
1:56 PM91 °FBroken clouds.7 mph56%30.09 "Hg10 mi
12:56 PM92 °FScattered clouds.No wind51%30.10 "Hg10 mi
11:56 AM91 °FScattered clouds.No wind56%30.11 "Hg10 mi
10:56 AM87 °FScattered clouds.No wind63%30.13 "Hg10 mi
9:56 AM85 °FScattered clouds.3 mph68%30.12 "Hg10 mi
8:56 AM84 °FScattered clouds.3 mph77%30.13 "Hg10 mi
7:56 AM80 °FScattered clouds.No wind87%30.12 "Hg10 mi
6:56 AM78 °FPassing clouds.No wind90%30.10 "Hg10 mi
5:56 AM77 °FPassing clouds.No wind90%30.08 "Hg10 mi
4:56 AM80 °FPassing clouds.No wind85%30.07 "Hg10 mi
3:56 AM78 °FPassing clouds.No wind90%30.07 "Hg10 mi
2:56 AM79 °FPassing clouds.5 mph88%30.09 "Hg10 mi
1:56 AM79 °FPassing clouds.5 mph88%30.10 "Hg10 mi
12:56 AM79 °FPassing clouds.3 mph88%30.11 "Hg10 mi
11:56 PM
Aug 31
79 °FPassing clouds.5 mph88%30.11 "Hg10 mi
10:56 PM80 °FPassing clouds.3 mph85%30.11 "Hg10 mi
9:56 PM82 °FPassing clouds.3 mph79%30.11 "Hg10 mi
8:56 PM81 °FPassing clouds.5 mph82%30.11 "Hg10 mi
7:56 PM83 °FScattered clouds.8 mph77%30.09 "Hg10 mi
6:56 PM86 °FScattered clouds.9 mph63%30.07 "Hg10 mi
5:56 PM89 °FScattered clouds.12 mph57%30.07 "Hg10 mi
Weather by CustomWeather, © 2014

See weather overviewHow to use our weather pages